Location: Tamazert
(32.6352°N, 5.2072°W)
Time: 03:47:38
(UTC+00:00)

Vanguard 2 Rocket - Pass Details

Date: 10 October 2022
Orbit: 555 x 3321 km, 32.9° (Epoch: 05 December)

Event Time Altitude Azimuth Distance (km) Brightness Sun altitude
Rises 01:32:57 0° 283° (WNW) 6,291 - -57.3°
Reaches altitude 10° 01:37:48 10° 281° (WNW) 4,855 - -56.6°
Maximum altitude 01:50:05 66° 203° (SSW) 1,550 - -54.8°
Drops below altitude 10° 01:56:50 10° 122° (ESE) 2,773 - -53.7°
Sets 01:58:55 0° 119° (ESE) 3,491 - -53.3°
